Overview Statistics Trail Chart Weather Telemetry Raw packets
 

This is the latest recevied weather packets stored in our database for station/object SV9TNF-57. If no packets are shown the sender has not sent any weather packets the latest 10 day(s).

<< 90 91 92 93 94 95 96 >>
Time Temp. Humidity Pressure Rain* Wind** Luminosity Snow
1787995907 26.67° C 51% 996.8 hPa 0 mm 11.18 m/s, 323° - -
1787995607 26.11° C 54% 996.9 hPa 0 mm 6.71 m/s, 174° - -
1787995306 26.11° C 52% 997 hPa 0 mm 6.71 m/s, 354° - -
1787995006 26.11° C 51% 996.9 hPa 0 mm 17.88 m/s, 329° - -
1787994706 26.67° C 52% 996.8 hPa 0 mm 12.07 m/s, 112° - -
1787994406 27.22° C 51% 996.9 hPa 0 mm 7.15 m/s, 318° - -
1787994106 26.67° C 51% 997.1 hPa 0 mm 10.28 m/s, 18° - -
1787993806 26.11° C 49% 996.8 hPa 0 mm 16.09 m/s, 266° - -
1787993506 26.67° C 51% 996.7 hPa 0 mm 17.88 m/s, 3° - -
1787993206 26.11° C 53% 996.8 hPa 0 mm 16.09 m/s, 350° - -
1787992906 26.11° C 52% 996.9 hPa 0 mm 18.78 m/s, 325° - -
1787992606 26.67° C 52% 996.7 hPa 0 mm 21.46 m/s, 276° - -
1787992306 26.11° C 53% 996.9 hPa 0 mm 17.43 m/s, 51° - -
1787992005 26.11° C 52% 996.7 hPa 0 mm 11.18 m/s, 336° - -
1787991706 26.11° C 52% 996.8 hPa 0 mm 12.96 m/s, 310° - -
1787991405 26.67° C 51% 996.8 hPa 0 mm 8.49 m/s, 2° - -
1787991105 26.67° C 53% 996.9 hPa 0 mm 21.01 m/s, 320° - -
1787990805 26.11° C 55% 996.7 hPa 0 mm 12.52 m/s, 338° - -
1787990505 26.11° C 54% 996.4 hPa 0 mm 10.28 m/s, 299° - -
1787990205 26.11° C 55% 997 hPa 0 mm 12.96 m/s, 356° - -
1787989905 26.67° C 54% 996.8 hPa 0 mm 5.36 m/s, 8° - -
1787989605 26.67° C 54% 996.5 hPa 0 mm 6.71 m/s, 342° - -
1787989305 26.11° C 55% 996.9 hPa 0 mm 13.86 m/s, 118° - -
1787989005 26.11° C 54% 996.9 hPa 0 mm 14.31 m/s, 273° - -
1787988704 26.11° C 53% 996.8 hPa 0 mm 14.75 m/s, 318° - -

* Rain latest hour (hover to see other rain measurements)
** Current wind speed in m/s (hover to see current wind gust speed)